CW7615 Weather Reports


Display with metric or nautical units.
time (UTC)temp
F
wind
direction
speed
MPH
gust
MPH
rain 1hr
in
rain 24hr
in
rain mn
in
humidity
%
barometer
mb
20260509224512 60 360 5.0 9.0 0.00 0.02 0.00 67 1016.1
20260509224010 60 5 5.0 9.0 0.00 0.02 0.00 66 1016.0
20260509223511 61 346 2.0 8.0 0.00 0.02 0.00 66 1016.1
20260509223009 61 339 5.0 8.0 0.00 0.02 0.00 66 1016.1
20260509222508 61 5 3.0 6.0 0.00 0.02 0.00 65 1016.0
20260509222008 61 340 3.0 8.0 0.00 0.02 0.00 65 1016.0
20260509221506 62 311 4.0 8.0 0.00 0.02 0.00 64 1016.1
20260509221006 62 355 3.0 6.0 0.00 0.02 0.00 64 1016.0
20260509220504 62 337 3.0 6.0 0.00 0.02 0.00 64 1015.9
20260509220011 62 334 3.0 6.0 0.00 0.02 0.02 64 1016.0
20260509215504 62 355 2.0 6.0 0.00 0.02 0.02 64 1015.9
20260509215001 62 355 3.0 6.0 0.00 0.02 0.02 64 1015.7
20260509214501 62 332 3.0 6.0 0.00 0.02 0.02 64 1015.7
20260509214002 62 337 3.0 6.0 0.00 0.02 0.02 64 1015.7
20260509213502 63 316 2.0 4.0 0.00 0.02 0.02 64 1015.6
20260509213100 63 355 2.0 4.0 0.00 0.02 0.02 63 1015.6
20260509212600 63 322 1.0 5.0 0.00 0.02 0.02 63 1015.6
20260509212100 63 322 1.0 5.0 0.00 0.02 0.02 63 1015.7
20260509211559 63 5 2.0 4.0 0.00 0.02 0.02 62 1015.6
20260509211101 63 343 1.0 4.0 0.00 0.02 0.02 62 1015.6
20260509210600 63 355 1.0 4.0 0.00 0.02 0.02 62 1015.6
20260509210108 63 355 0.0 5.0 0.00 0.02 0.02 63 1015.5
20260509205558 63 13 2.0 5.0 0.00 0.02 0.02 63 1015.5
20260509205059 63 324 0.0 4.0 0.00 0.02 0.02 63 1015.5
20260509204603 64 360 2.0 3.0 0.00 0.02 0.02 63 1015.5
20260509204057 64 33 1.0 4.0 0.00 0.02 0.02 63 1015.5
20260509203556 64 355 0.0 6.0 0.00 0.02 0.02 63 1015.4
20260509203057 64 19 1.0 5.0 0.00 0.02 0.02 63 1015.3
20260509202556 64 5 2.0 9.0 0.00 0.02 0.02 63 1015.3
20260509202057 63 351 1.0 11.0 0.00 0.02 0.02 63 1015.2
20260509201554 63 288 1.0 7.0 0.00 0.02 0.02 64 1015.1
20260509201053 63 333 1.0 5.0 0.00 0.02 0.02 65 1015.2
20260509200553 63 315 1.0 3.0 0.00 0.02 0.02 66 1015.0
20260509200106 63 330 0.0 6.0 0.00 0.02 0.02 66 1015.0
20260509195552 63 299 2.0 4.0 0.00 0.02 0.02 66 1014.8
20260509195051 63 342 1.0 4.0 0.00 0.02 0.02 68 1014.8
20260509194552 63 5 1.0 4.0 0.00 0.02 0.02 68 1014.9
20260509194051 63 5 1.0 3.0 0.00 0.02 0.02 68 1014.6
20260509193550 63 342 1.0 3.0 0.00 0.02 0.02 68 1014.7
20260509193048 63 331 0.0 4.0 0.00 0.02 0.02 69 1014.6
20260509192549 64 325 1.0 4.0 0.00 0.02 0.02 69 1014.6
20260509192049 64 329 2.0 5.0 0.00 0.02 0.02 69 1014.6
20260509191548 64 355 1.0 4.0 0.00 0.02 0.02 70 1014.5
20260509191051 64 82 0.0 3.0 0.00 0.02 0.02 70 1014.5
20260509190548 64 87 0.0 3.0 0.00 0.02 0.02 70 1014.4
20260509190056 64 43 0.0 5.0 0.00 0.02 0.02 70 1014.4
20260509185548 64 24 2.0 5.0 0.00 0.02 0.02 70 1014.4
20260509185047 65 207 0.0 5.0 0.00 0.02 0.02 70 1014.4
20260509184624 65 223 0.0 3.0 0.00 0.02 0.02 70 1014.3
20260509184050 65 142 0.0 5.0 0.00 0.02 0.02 70 1014.4
20260509183546 65 50 2.0 5.0 0.00 0.02 0.02 70 1014.3
20260509183048 65 20 1.0 4.0 0.00 0.02 0.02 70 1014.3
20260509182547 65 63 0.0 3.0 0.00 0.02 0.02 71 1014.2
20260509182046 65 33 0.0 4.0 0.00 0.02 0.02 71 1014.4
20260509181548 65 134 0.0 3.0 0.00 0.02 0.02 71 1014.4
20260509181046 65 44 0.0 5.0 0.00 0.02 0.02 71 1014.5
20260509180545 65 249 1.0 5.0 0.00 0.02 0.02 71 1014.5
20260509180045 65 113 1.0 5.0 0.00 0.02 0.02 71 1014.5
20260509175545 65 254 2.0 6.0 0.00 0.02 0.02 71 1014.4
20260509175045 65 233 0.0 2.0 0.00 0.02 0.02 72 1014.5
20260509174546 65 232 0.0 4.0 0.00 0.02 0.02 72 1014.5
20260509174045 65 200 1.0 4.0 0.00 0.02 0.02 71 1014.5
20260509173543 65 180 0.0 4.0 0.00 0.02 0.02 72 1014.4
20260509173046 66 155 0.0 5.0 0.00 0.02 0.02 72 1014.4
20260509172544 65 172 1.0 5.0 0.00 0.02 0.02 72 1014.3
20260509172043 66 193 1.0 5.0 0.00 0.02 0.02 71 1014.3
20260509171544 66 178 3.0 5.0 0.00 0.02 0.02 70 1014.2
20260509171046 67 173 3.0 6.0 0.00 0.02 0.02 69 1014.2
20260509170543 66 204 1.0 6.0 0.00 0.02 0.02 70 1014.1
20260509170043 66 126 2.0 4.0 0.00 0.02 0.02 71 1014.2
20260509165542 66 127 3.0 6.0 0.00 0.02 0.02 71 1014.2
20260509165042 66 121 3.0 5.0 0.00 0.02 0.02 72 1014.1
20260509164541 66 118 1.0 7.0 0.00 0.02 0.02 72 1014.3
20260509164045 66 116 1.0 8.0 0.00 0.02 0.02 74 1014.4
20260509163541 65 148 4.0 8.0 0.00 0.02 0.02 74 1014.3
20260509163054 65 103 2.0 8.0 0.00 0.02 0.02 74 1014.3
20260509162544 65 120 3.0 9.0 0.00 0.02 0.02 74 1014.4
20260509162041 65 117 5.0 9.0 0.00 0.02 0.02 75 1014.3
20260509161540 65 146 4.0 7.0 0.00 0.02 0.02 74 1014.2
20260509161043 65 146 3.0 7.0 0.00 0.02 0.02 73 1014.2
20260509160539 66 114 3.0 7.0 0.00 0.02 0.02 72 1014.1
20260509160039 66 135 1.0 4.0 0.00 0.02 0.02 73 1013.9
20260509155541 66 121 1.0 9.0 0.00 0.02 0.02 73 1013.9
20260509155037 66 121 5.0 9.0 0.00 0.02 0.02 72 1013.8
20260509154543 66 165 4.0 7.0 0.00 0.02 0.02 72 1013.8
20260509154038 66 159 2.0 10.0 0.00 0.02 0.02 72 1013.7
20260509153539 67 101 5.0 10.0 0.00 0.02 0.02 71 1013.7
20260509153037 67 140 5.0 10.0 0.00 0.02 0.02 71 1013.6
20260509152638 67 140 2.0 9.0 0.00 0.02 0.02 70 1013.6
20260509152035 68 138 3.0 10.0 0.00 0.02 0.02 70 1013.7
20260509151534 67 117 3.0 10.0 0.00 0.02 0.02 70 1013.7
20260509151038 67 129 3.0 7.0 0.00 0.02 0.02 70 1013.7
20260509150532 67 163 1.0 7.0 0.00 0.02 0.02 71 1013.9
20260509150032 66 121 3.0 7.0 0.00 0.02 0.02 72 1013.9
20260509145532 65 153 3.0 7.0 0.00 0.02 0.02 76 1013.8
20260509145031 65 192 1.0 5.0 0.00 0.02 0.02 75 1013.8
20260509144531 65 181 2.0 5.0 0.00 0.02 0.02 76 1013.9
20260509144031 64 142 1.0 5.0 0.00 0.02 0.02 77 1013.9
20260509143531 64 140 2.0 7.0 0.00 0.02 0.02 77 1013.9
20260509143036 64 107 2.0 6.0 0.00 0.02 0.02 78 1013.9
20260509142531 63 141 0.0 7.0 0.00 0.02 0.02 78 1014.0
20260509142030 63 115 3.0 8.0 0.00 0.02 0.02 78 1014.0
20260509141539 63 97 4.0 11.0 0.00 0.02 0.02 78 1014.0
20260509141029 63 110 6.0 11.0 0.00 0.02 0.02 77 1013.9
20260509140529 64 168 3.0 9.0 0.00 0.02 0.02 76 1013.9
20260509140028 64 156 3.0 10.0 0.00 0.02 0.02 76 1013.8
20260509135528 64 123 5.0 10.0 0.00 0.02 0.02 75 1013.8
20260509135031 64 121 3.0 8.0 0.00 0.02 0.02 75 1013.7
20260509134527 64 107 2.0 12.0 0.00 0.02 0.02 75 1013.6
20260509134028 64 146 7.0 12.0 0.00 0.02 0.02 75 1013.7
20260509133531 64 161 6.0 11.0 0.00 0.02 0.02 74 1013.6
20260509133027 64 102 3.0 10.0 0.00 0.02 0.02 73 1013.6
20260509132527 65 117 5.0 11.0 0.00 0.02 0.02 72 1013.6
20260509132029 65 142 3.0 11.0 0.00 0.02 0.02 71 1013.5
20260509131526 65 131 4.0 11.0 0.00 0.02 0.02 71 1013.4
20260509131027 66 118 5.0 11.0 0.00 0.02 0.02 69 1013.4
20260509130528 66 160 4.0 9.0 0.00 0.02 0.02 68 1013.4
20260509130026 66 123 3.0 12.0 0.00 0.02 0.02 68 1013.4
20260509125525 66 193 4.0 12.0 0.00 0.02 0.02 69 1013.3
20260509125028 65 147 1.0 8.0 0.00 0.02 0.02 71 1013.4
20260509124533 64 141 4.0 10.0 0.00 0.02 0.02 72 1013.6
20260509124025 64 113 5.0 10.0 0.00 0.02 0.02 72 1013.6
20260509123525 64 130 3.0 11.0 0.00 0.02 0.02 71 1013.6
20260509123035 65 182 5.0 15.0 0.00 0.02 0.02 70 1013.4
20260509122525 65 82 8.0 15.0 0.00 0.02 0.02 68 1013.5
20260509122026 66 98 7.0 13.0 0.00 0.02 0.02 67 1013.5
20260509121524 66 122 4.0 12.0 0.00 0.02 0.02 68 1013.4
20260509121023 66 86 6.0 12.0 0.00 0.02 0.02 67 1013.4
20260509120522 67 139 8.0 12.0 0.00 0.02 0.02 67 1013.5
20260509120022 67 109 4.0 12.0 0.00 0.02 0.02 68 1013.6
20260509115519 66 80 6.0 12.0 0.00 0.02 0.02 68 1013.6
20260509115026 66 123 7.0 12.0 0.00 0.02 0.02 70 1013.7
20260509114518 65 153 3.0 10.0 0.00 0.02 0.02 71 1013.7
20260509114019 64 117 5.0 11.0 0.00 0.02 0.02 71 1013.7
20260509113520 65 121 4.0 12.0 0.00 0.02 0.02 71 1013.7
20260509113016 65 139 6.0 12.0 0.00 0.02 0.02 69 1013.4
20260509112516 66 152 3.0 12.0 0.00 0.02 0.02 69 1013.2
20260509112014 66 141 7.0 12.0 0.00 0.02 0.02 71 1013.2
20260509111519 66 115 6.0 12.0 0.00 0.02 0.02 71 1013.2
20260509111014 65 157 4.0 11.0 0.00 0.02 0.02 70 1013.3
20260509110511 66 107 5.0 10.0 0.00 0.02 0.02 71 1013.3
20260509110009 65 163 3.0 7.0 0.00 0.02 0.02 71 1013.4
20260509105508 65 151 3.0 9.0 0.00 0.02 0.02 73 1013.2
20260509105007 65 138 3.0 9.0 0.00 0.02 0.02 71 1013.2
20260509104521 65 146 4.0 8.0 0.00 0.02 0.02 73 1013.2
20260509104008 65 117 5.0 9.0 0.00 0.02 0.02 74 1013.1
20260509103505 64 142 4.0 9.0 0.00 0.02 0.02 73 1013.2
20260509103005 65 117 2.0 8.0 0.00 0.02 0.02 74 1013.2
20260509102505 64 142 3.0 10.0 0.00 0.02 0.02 75 1013.1
20260509102003 64 136 2.0 10.0 0.00 0.02 0.02 74 1012.9
20260509101503 64 153 3.0 9.0 0.00 0.02 0.02 75 1013.0
20260509101002 64 132 4.0 10.0 0.00 0.02 0.02 75 1012.9
20260509100500 64 100 3.0 10.0 0.00 0.02 0.02 75 1012.8
20260509100115 63 138 5.0 9.0 0.00 0.02 0.02 76 1012.7
20260509095559 63 177 3.0 10.0 0.00 0.02 0.02 76 1012.7
20260509095058 63 129 4.0 8.0 0.00 0.02 0.02 78 1012.7
20260509094556 62 144 3.0 7.0 0.00 0.02 0.02 78 1012.8
20260509094054 62 136 3.0 7.0 0.00 0.02 0.02 79 1012.9
20260509093653 61 117 4.0 7.0 0.00 0.02 0.02 79 1013.0
20260509093053 61 136 2.0 5.0 0.00 0.02 0.02 81 1012.9
20260509092556 61 122 1.0 3.0 0.00 0.02 0.02 82 1012.9
20260509092051 60 100 0.0 3.0 0.00 0.02 0.02 82 1012.8
20260509091603 60 99 0.0 3.0 0.00 0.02 0.02 83 1012.7
20260509091049 60 99 0.0 0.0 0.00 0.02 0.02 84 1012.6
20260509090549 60 99 0.0 0.0 0.00 0.02 0.02 85 1012.6
20260509090051 60 99 0.0 2.0 0.00 0.02 0.02 85 1012.6
20260509085547 59 94 0.0 2.0 0.00 0.02 0.02 84 1012.7
20260509085055 59 94 0.0 1.0 0.00 0.02 0.02 84 1012.6
20260509084546 59 94 0.0 1.0 0.00 0.02 0.02 84 1012.5
20260509084046 59 94 0.0 2.0 0.00 0.02 0.02 85 1012.4
20260509083545 58 94 0.0 2.0 0.00 0.02 0.02 85 1012.4
20260509083047 58 92 0.0 2.0 0.00 0.02 0.02 85 1012.3
20260509082543 58 92 0.0 2.0 0.00 0.02 0.02 86 1012.3
20260509082044 58 92 0.0 3.0 0.00 0.02 0.02 88 1012.2
20260509081553 58 92 0.0 2.0 0.00 0.02 0.02 89 1012.2
20260509081043 58 78 0.0 4.0 0.00 0.02 0.02 89 1012.1
20260509080543 57 78 1.0 5.0 0.00 0.02 0.02 90 1011.9
20260509080049 58 73 2.0 6.0 0.00 0.02 0.02 91 1011.9
20260509075541 57 49 3.0 5.0 0.00 0.02 0.02 91 1011.9
20260509075041 57 67 3.0 5.0 0.00 0.02 0.02 90 1011.9
20260509074544 57 114 1.0 3.0 0.00 0.02 0.02 91 1012.2
20260509074040 57 114 0.0 4.0 0.00 0.02 0.02 91 1012.0
20260509073539 57 114 2.0 7.0 0.00 0.02 0.02 91 1012.0
20260509073045 57 119 4.0 12.0 0.00 0.02 0.02 90 1011.9
20260509072541 57 98 6.0 12.0 0.00 0.02 0.02 91 1012.0
20260509072036 58 170 3.0 7.0 0.00 0.02 0.02 91 1012.0
20260509071535 58 129 2.0 6.0 0.00 0.02 0.02 91 1011.8
20260509071034 58 119 2.0 7.0 0.00 0.02 0.02 92 1011.3
20260509070534 59 136 3.0 7.0 0.01 0.02 0.02 92 1011.5
20260509070033 59 123 3.0 7.0 0.01 0.02 0.02 92 1011.3
20260509065532 59 103 1.0 6.0 0.01 0.02 0.02 92 1011.1
20260509065029 59 129 2.0 6.0 0.01 0.02 0.02 92 1011.2
20260509064531 59 169 3.0 5.0 0.01 0.02 0.02 92 1011.2
20260509064029 59 140 1.0 4.0 0.01 0.02 0.02 92 1010.9
20260509063528 59 147 0.0 4.0 0.02 0.02 0.02 92 1011.1
20260509063034 59 180 0.0 0.0 0.02 0.02 0.02 92 1011.0
20260509062528 59 180 0.0 0.0 0.02 0.02 0.02 91 1010.9
20260509062028 59 180 0.0 2.0 0.02 0.02 0.02 91 1010.9
20260509061538 59 180 0.0 4.0 0.02 0.02 0.02 91 1010.9
20260509061030 59 180 1.0 8.0 0.02 0.02 0.02 91 1010.5
20260509060525 59 167 1.0 8.0 0.01 0.01 0.01 90 1010.3
20260509060026 59 169 4.0 8.0 0.01 0.01 0.01 90 1010.4
20260509055530 59 222 3.0 9.0 0.01 0.01 0.01 90 1010.2
20260509055023 59 22 1.0 12.0 0.01 0.01 0.01 90 1009.4
20260509054523 59 76 3.0 12.0 0.01 0.01 0.01 89 1009.5
20260509054023 60 16 7.0 11.0 0.01 0.01 0.01 89 1009.5
20260509053522 60 153 1.0 2.0 0.00 0.00 0.00 89 1010.2
20260509053037 60 278 0.0 3.0 0.00 0.00 0.00 88 1010.1
20260509052524 60 273 1.0 3.0 0.00 0.00 0.00 88 1010.0
20260509052021 60 342 0.0 2.0 0.00 0.00 0.00 88 1009.9
20260509051520 59 342 0.0 1.0 0.00 0.00 0.00 88 1009.7
20260509051025 59 342 0.0 2.0 0.00 0.00 0.00 88 1009.7
20260509050521 59 342 0.0 2.0 0.00 0.00 0.00 88 1009.5
20260509050021 60 342 0.0 3.0 0.00 0.00 0.00 88 1009.3
20260509045524 60 342 2.0 3.0 0.00 0.00 0.00 89 1009.2
20260509045019 60 250 0.0 2.0 0.00 0.00 0.00 89 1009.5
20260509044520 60 250 0.0 3.0 0.00 0.00 0.00 89 1009.4
20260509044020 60 252 1.0 3.0 0.00 0.00 0.00 88 1009.6
20260509043518 59 5 0.0 6.0 0.00 0.00 0.00 88 1009.5
20260509043019 60 5 2.0 9.0 0.00 0.00 0.00 89 1009.3
20260509042519 60 5 3.0 11.0 0.00 0.00 0.00 89 1009.2
20260509042018 60 5 5.0 11.0 0.00 0.00 0.00 89 1009.1
20260509041517 60 24 3.0 5.0 0.00 0.00 0.00 89 1009.6
20260509041016 60 35 2.0 4.0 0.00 0.00 0.00 89 1009.7
20260509040516 60 180 0.0 1.0 0.00 0.00 0.00 89 1010.0
20260509040016 60 180 0.0 1.0 0.00 0.00 0.00 89 1010.0
20260509035517 60 180 0.0 0.0 0.00 0.00 0.00 89 1010.1
20260509035015 60 180 0.0 0.0 0.00 0.00 0.00 89 1010.0
20260509034514 60 180 0.0 0.0 0.00 0.00 0.00 88 1010.0
20260509034015 60 180 0.0 3.0 0.00 0.00 0.00 88 1010.0
20260509033515 60 180 0.0 3.0 0.00 0.00 0.00 88 1010.0
20260509033015 60 181 0.0 2.0 0.00 0.00 0.00 88 1010.0
20260509032515 60 180 0.0 4.0 0.00 0.00 0.00 88 1010.1
20260509032020 60 180 1.0 4.0 0.00 0.00 0.00 88 1010.1
20260509031513 60 161 2.0 5.0 0.00 0.00 0.00 87 1009.9
20260509031013 60 56 0.0 2.0 0.00 0.00 0.00 87 1009.7
20260509030516 60 56 0.0 3.0 0.00 0.00 0.00 86 1009.5
20260509030013 60 56 1.0 3.0 0.00 0.00 0.00 86 1009.6
20260509025512 60 181 0.0 5.0 0.00 0.00 0.00 85 1009.8
20260509025112 60 198 0.0 5.0 0.00 0.00 0.00 85 1010.0
20260509024511 61 173 4.0 6.0 0.00 0.00 0.00 84 1010.0
20260509024013 60 46 0.0 8.0 0.00 0.00 0.00 83 1009.6
20260509023511 60 27 4.0 12.0 0.00 0.00 0.00 83 1009.3
20260509023011 60 5 8.0 12.0 0.00 0.00 0.00 84 1009.4
20260509022512 60 50 3.0 12.0 0.00 0.00 0.00 84 1009.7
20260509022008 60 325 9.0 12.0 0.00 0.00 0.00 85 1009.7
20260509021508 60 355 5.0 9.0 0.00 0.00 0.00 85 1010.1
20260509021006 60 19 2.0 8.0 0.00 0.00 0.00 86 1010.2
20260509020509 60 26 4.0 8.0 0.00 0.00 0.00 86 1010.3
20260509020006 60 327 1.0 3.0 0.00 0.00 0.00 87 1010.4
20260509015505 60 57 0.0 3.0 0.00 0.00 0.00 87 1010.6
20260509015006 60 74 0.0 2.0 0.00 0.00 0.00 87 1010.6
20260509014507 60 92 0.0 2.0 0.00 0.00 0.00 87 1010.5
20260509014003 60 92 0.0 2.0 0.00 0.00 0.00 87 1010.5
20260509013506 60 92 0.0 2.0 0.00 0.00 0.00 87 1010.5
20260509013004 60 92 1.0 2.0 0.00 0.00 0.00 87 1010.6
20260509012503 60 92 0.0 2.0 0.00 0.00 0.00 87 1010.6
20260509012003 60 92 0.0 1.0 0.00 0.00 0.00 87 1010.7
20260509011502 60 92 0.0 0.0 0.00 0.00 0.00 86 1010.7
20260509011002 60 92 0.0 0.0 0.00 0.00 0.00 86 1010.5
20260509010502 60 92 0.0 0.0 0.00 0.00 0.00 86 1010.7
20260509010100 60 92 0.0 0.0 0.00 0.00 0.00 86 1010.9
20260509010001 60 92 0.0 1.0 0.00 0.00 0.00 86 1010.9
20260509005601 60 92 0.0 2.0 0.00 0.00 0.00 86 1011.0
20260509005503 60 92 0.0 4.0 0.00 0.00 0.00 86 1011.0
20260509005059 60 92 0.0 4.0 0.00 0.00 0.00 86 1011.1
20260509004559 60 94 2.0 6.0 0.00 0.00 0.00 86 1011.3
20260509004057 61 115 3.0 8.0 0.00 0.00 0.00 86 1011.4
20260509003557 61 129 3.0 8.0 0.00 0.00 0.00 86 1011.5
20260509003103 61 111 1.0 3.0 0.00 0.00 0.00 86 1011.5
20260509002555 61 111 1.0 3.0 0.00 0.00 0.00 86 1011.7
20260509002056 61 144 0.0 0.0 0.00 0.00 0.00 86 1011.8
20260509001555 61 144 0.0 0.0 0.00 0.00 0.00 85 1011.9
20260509001055 61 144 0.0 3.0 0.00 0.00 0.00 85 1012.0
20260509000557 61 144 1.0 3.0 0.00 0.00 0.00 84 1011.9
20260509000053 61 143 1.0 3.0 0.00 0.00 0.00 83 1011.9
20260508235553 60 117 0.0 2.0 0.00 0.00 0.00 83 1012.0
20260508235053 60 24 0.0 2.0 0.00 0.00 0.00 83 1011.9
20260508234556 60 24 0.0 5.0 0.00 0.00 0.00 83 1011.8
20260508234051 60 24 2.0 6.0 0.00 0.00 0.00 84 1011.8
20260508233551 60 11 4.0 6.0 0.00 0.00 0.00 84 1011.8
20260508233102 60 5 4.0 6.0 0.00 0.00 0.00 84 1011.7
20260508232551 60 17 3.0 5.0 0.00 0.00 0.00 84 1011.8
20260508232050 60 9 1.0 5.0 0.00 0.00 0.00 84 1011.9
20260508231631 60 9 2.0 4.0 0.00 0.00 0.00 84 1011.9
20260508231050 60 28 1.0 4.0 0.00 0.00 0.00 84 1011.9
20260508230548 60 26 1.0 3.0 0.00 0.00 0.00 84 1012.0
20260508230058 60 23 1.0 5.0 0.00 0.00 0.00 84 1011.9
20260508225547 60 23 2.0 5.0 0.00 0.00 0.00 85 1012.0
20260508225047 60 346 2.0 4.0 0.00 0.00 0.00 85 1011.9